Dashboard / TOP 100 BUKU Terbaru

NO_INV Buku Judul Buku Pengarang Tgl_Masuk
090319-010935 TEKNIK PENDUGAAN & EKSPLOITASI AIR TANAH NANANG SAIFUL 2019-03-09 10:49:23
090319-010934 PERENCANAAN STRUKTUR BANGUNAN NANANG SAIFUL 2019-03-09 10:48:08
090319-010933 STRUKTUR BETON BERTULANG PUJO PRIYONO 2019-03-09 10:38:44
090319-010932 PERSPEKTIF BIOPSIKOSOSIAL UNTUK ASESMEN KEBERFUNGSIAN SOSIAL ADI FAHRUDIN 2019-03-09 10:25:15
090319-010931 TEORI DAN IMPLEMENTASI PEMBELAJARAN SAINTIFIK KURIKULUM 2013 AHMAD YANI DAN MAMAT R. 2019-03-09 10:18:56
090319-010930 CRISIS IN THE MUSLIM MIND ABDUL HAMID 2019-03-09 10:16:03
090319-010929 ISLAMICISATION OF KNOWLEDGE AND ENGLISH LITERARY STUDIES NOR FARIDAH A.M. 2019-03-09 10:12:46
090319-010927 KUMPULAN ESAI DAN PUISI BEING AWESOME PLEMBANG RINA RATIH DAN MUKHTARUDIN 2019-03-09 09:57:50
090319-010926 ISLAMIC ECONOMICS SOUTHEAST ASIAN UNIVERSITIES MOHD NIZAM, DKK 2019-03-09 09:56:05
090319-010925 FILSAFAT BAHASA: MENGUNGKAP HAKIKAT BAHASA MAKNA DAN TANDA ASEP AHMAD HIDAYAT 2019-03-09 09:49:40
090319-010924 PRAKTIKUM KEAMANAN KOMPUTER TRIAWAN ADI C. 2019-03-09 09:45:13
090319-010922 Averroisme : Dimensi-dimensi Pemikiran Ibn Rusyd Aminullah Elhady 2019-03-09 09:33:08
090319-010921 KEPERAWATAN ANAK II PANDUAN UNTUK PRESEPTOR NIKMATUR ROHMAH 2019-03-09 09:33:01
090319-010920 DIAGNOSIS DAN TINDAKAN KEPERAWATAN PADA KASUS ORTHOPEDI DAN TRAUMATOLOGI NIKMATUR ROHMAH 2019-03-09 09:29:19
090319-010919 TERAPI BERMAIN NIKMATUR ROHMAH 2019-03-09 09:26:16
090319-010917 Konstruksi Pemikiran Politik Ki Bagus Hadikusumo : Islam, Pancasila, dan Negara Suhartono, dkk 2019-03-09 09:24:01
090319-010916 PERAWATAN BAYI MELALUI PENDEKATAN MATERNAL SENSITIVITY MODEL (MSM) BERBASIS KELUARGA DIYAN INDRIYANI, DKK 2019-03-09 09:23:12
090319-010915 PENANGANAN KEGAWATAN PADA BAYI MUDA NIKMATUR ROHMAH 2019-03-09 09:18:14
090319-010914 Supervisi Pendidikan : Pendekatan sistem berbasis kinerja Uhar Suharsaputra 2019-03-09 09:16:59
090319-010913 BUKU AJAR PROSES KEPERAWATAN: TEORI DAN APLIKASI NIKMATUR R. DAN SAIFUL WALID 2019-03-09 09:14:51
090319-010911 CERITA DARI UJUNG TIMUR JAWA DINA MERDEKA C. 2019-03-09 08:46:05
090319-010910 Travellers Tale : Belok Kana, Barcelona! Adhitya mulya, dkk 2019-03-09 08:42:48
080319-010909 HAMKA Tim Historia 2019-03-08 10:35:51
080319-010908 PINGKAN MELIPAT JARAK Sapardi Djoko Damono 2019-03-08 10:31:58
080319-010907 HANUM DAN RANGGA Hanum Salasabila Rais dan Almahendra 2019-03-08 10:28:36
080319-010906 ASSALAMMUALAIKUM HAWA YANG TERSEMBUNYI Heri Satriawan 2019-03-08 10:23:57
080319-010905 TSUKURU TAZAKI TANPA WARNA DAN TAHUN ZIARAHNYA Haruku Murakami 2019-03-08 10:19:20
080319-010895 Promosi Kesehatan : Untuk Perawat di Rumah Sakit dan Puskesmas Asmuji 2019-03-08 10:17:38
080319-010890 BERHENTIDIKAMU dr. Gia Pratama 2019-03-08 10:01:36
080319-010889 A POCKKET FULL OF RYE Agatha Christie 2019-03-08 09:57:21
080319-010886 BERTANAM SAYURAN DAUN & UMBI HENDRO SUNARJONO DAN FEBRI A.N 2019-03-08 09:55:54
080319-010883 REFORMASI PASAR EKA SASTRA 2019-03-08 09:53:46
080319-010882 WHILE THE LIGHT LASTS Agatha Christie 2019-03-08 09:53:26
080319-010879 Islam dan Politik : Upaya membingkai peradaban Ahmad Syafii Maarif 2019-03-08 09:51:31
080319-010876 MEMPERBAIKI TATA KELOLA PEMERINTAHAN: ANALISIS MASALAH ANTIKORUPSI, HUKUM DAN KEBIJAKAN KONTEMPORER ROBY ARYA BRATA 2019-03-08 09:50:49
080319-010875 DISFORIA INERSIA Wira Nagara 2019-03-08 09:48:54
080319-010872 MENATAP MASA DEPAN DEWAN PERWAKILAN DAERAH HARTATI 2019-03-08 09:47:09
080319-010871 IF YOU KNOW WHY Indriya 2019-03-08 09:45:15
080319-010868 Kebijakan Publik : Berbasis dynamic policy analysis Dwiyanto Indiahono 2019-03-08 09:43:14
080319-010867 I AM SARAHZA Hanum Salasabila Rais dan Almahendra 2019-03-08 09:40:39
080319-010864 VERTIKULTUR BERTANAM SAYURAN DI LAHAN TERBATAS TOSIN GLIO 2019-03-08 09:39:27
080319-010860 MEMBUAT MIKROORGANISME LOKAL (MOL) DAN KOMPOS DARI SAMPAH RUMAH TANGGA MULYONO 2019-03-08 09:33:35
080319-010857 BUDIDAYA HIDROPONIK YANG PALING MENGUNTUNGKAN ELISA 2019-03-08 09:31:59
080319-010856 DEAR, IMANKU Mellyana 2019-03-08 09:30:04
080319-010855 SURAT KECIL UNTUK TUHAN Agnes Davonar 2019-03-08 09:25:25
080319-010852 UNTUNG DARI BISNIS DOMBA&KAMBING MITRA TANI FARM 2019-03-08 09:25:20
080319-010849 KEMITRAAN DAN MODEL-MODEL PEMBERDAYAAN AMBAR TEGUH SULISTIYANI 2019-03-08 09:22:18
080319-010843 BERTANAM TANAMAN BUAH DI PEKARANGAN ENDANG GUNAWAN 2019-03-08 09:17:27
080319-010846 Kekerasan Terhadap Anak Abu Huraerah 2019-03-08 09:17:27
080319-010840 SEJARAH ARAB SEBELUM ISLAM JAWWAD ALI 2019-03-08 09:09:40